Location: Kissing
(48.3027°N, 10.9775°E)
Time: 17:54:50
(UTC+00:00)

NOSS 2-1 (D) - Pass Details

Date: 07 June 2020
Orbit: 449 x 1754 km, 63.3° (Epoch: 25 June)

Event Time Altitude Azimuth Distance (km) Brightness Sun altitude
Exits shadow 01:16:56 27° 205° (SSW) 905 3.8 -13.9°
Maximum altitude 01:18:38 68° 128° (SE) 496 3.0 -13.7°
Drops below altitude 10° 01:22:14 10° 45° (NE) 1,696 7.1 -13.4°
Sets 01:24:33 0° 43° (NE) 2,691 8.6 -13.2°
